Regional Weather Roundup
Issued by NWS

Home | Current Version | Previous Version | Text Only | Print | Product List | Glossary On
Versions: 1 2 3 4 5 6 7 8 9 10 11 12 13 14 15 16 17 18 19 20 21 22 23 24 25 26 27 28 29 30 31 32 33 34 35 36 37 38 39 40 41 42 43 44 45 46 47 48 49 50
030
ASUS44 KOUN 081710
RWROK

WEATHER ROUNDUP FOR OKLAHOMA
NATIONAL WEATHER SERVICE NORMAN OK
1100 AM CST THU DEC 08 2016

NOTE: "FAIR" INDICATES FEW OR NO CLOUDS BELOW 12,000 FEET WITH NO
      SIGNIFICANT WEATHER AND/OR OBSTRUCTIONS TO VISIBILITY.

OKZ001>007-009>012-014-015-017-081800-
NORTHWEST OKLAHOMA AND THE PANHANDLE

CITY           SKY/WX    TMP DP  RH WIND       PRES   REMARKS
GAGE           SUNNY     23   4  44 N12       30.71R WCI  12
GUYMON         SUNNY     19   1  45 VRB6      30.66R WCI  11
ENID/WOODRING  MOSUNNY   27  10  50 N14       30.73S WCI  15
$$

OKZ016-021>023-033>039-044-045-081800-
SOUTHWEST OKLAHOMA

CITY           SKY/WX    TMP DP  RH WIND       PRES   REMARKS
LAWTON/REGL    CLOUDY    29  11  47 N16       30.72S WCI  17
LAWTON/FT SILL CLOUDY    29  13  51 N17       30.69F WCI  16
FREDERICK      CLOUDY    28  14  55 N13       30.70R WCI  17
CLINTON        CLOUDY    25   7  46 N17       30.70S WCI  12
HOBART         PTSUNNY   28  12  51 NE14      30.73R WCI  17
ALTUS AFB      CLOUDY    28  10  46 N13       30.73R WCI  17
$$

OKZ018>020-024>031-081800-
CENTRAL OKLAHOMA

CITY           SKY/WX    TMP DP  RH WIND       PRES   REMARKS
OKLAHOMA CITY  PTSUNNY   28   8  43 N16       30.69F WCI  16
OKC/WILEY POST SUNNY     28   8  43 N18       30.71S WCI  15
OKC/TINKER AFB SUNNY     28   7  41 N18       30.68S WCI  15
STILLWATER     SUNNY     28  10  46 N13G20    30.73S WCI  17
GUTHRIE        SUNNY     27   9  46 N8        30.73R WCI  19
$$

OKZ008-013-054>072-081800-
NORTHEAST OKLAHOMA

CITY           SKY/WX    TMP DP  RH WIND       PRES   REMARKS
TULSA          PTSUNNY   28  11  48 N13       30.72R WCI  17
TULSA/JONES    SUNNY     28   9  44 N8        30.73S WCI  20
PONCA CITY     SUNNY     26   8  46 N7        30.73S WCI  18
BARTLESVILLE   SUNNY     28  11  48 VRB5      30.74S WCI  23
MUSKOGEE       MOSUNNY   30  11  45 N16       30.72S WCI  19
$$

OKZ032-040>043-046>053-073>077-081800-
SOUTH CENTRAL/SOUTHEAST OKLAHOMA

CITY           SKY/WX    TMP DP  RH WIND       PRES   REMARKS
ARDMORE/DWNTWN CLOUDY    32  12  43 NE12G17   30.69S WCI  23
MCALESTER      PTSUNNY   31  10  41 N15       30.69R WCI  20
$$





USA.gov is the U.S. government's official web portal to all federal, state and local government web resources and services.